MACSAT 2 (M 2)

Satellite information

Favourite Embed

Satellite Type and Status

PAYLOADIN ORBIT

Key statistics

Satellite MACSAT 2 (M 2) at a glance.

Uptime

13002

Days in orbit

Revolutions

≈ 14.8

Per day

Orbit

LEO

Low Earth Orbit

Inclination

89.7

Latest

Satellite identification and parameters

Extended collection of information and parameters for MACSAT 2 (M 2).

Object identification

Identified? True

Debris? False

Object name: MACSAT 2 (M 2)

International designator: 1990-043B

Object number (NORAD): 20608

Object ID (CCSDS): 20608

Country: UNITED STATES OF AMERICA (US)

Current information (Y/N): Y

RCS size: MEDIUM

Orbital parameters

Period: 97.28 minutes

Inclination: 89.7457 deg

SMA: 7006.644 km

Apoapsis: 687.65 km

Periapsis: 569.369 km

RAAN: 251.1199 deg

Eccentricy: 0.0084406

Argument of periapsis: 118.6516 deg

Mean anomaly: 242.3229 deg

Mean motion: 14.80258765 rev/day

Mean motion (dot): 0.00001695 rev/day2

B* drag term: 0.00020717613 1/REarth

Two-line elements (TLE)

Creation date: Dec. 12, 2025, 10:14 a.m.

Reference frame: TEME

Reference center: EARTH

Epoch: Dec. 12, 2025, 5:28 a.m. UTC

TLE line 0: 0 MACSAT 2 (M 2)

TLE line 1: 1 20608U 90043B 25346.22830691 .00001695 00000-0 20718-3 0 9995

TLE line 2: 2 20608 89.7457 251.1199 0084406 118.6516 242.3229 14.80258765910736

Live tracking on map

Real-time ground track for satellite MACSAT 2 (M 2).

In-orbit conjunctions

A list of the most updated potential collisions computed for object MACSAT 2 (M 2).

Target Orbit TCA Probability of collision Miss distance Type
ATLAS 5 CENTAUR R/B LEO 2025-05-18 09:30:07 0.0002731725 975.0 (m) ROCKET BODY
METEOR 2-6 DEB LEO 2025-01-08 20:47:45 0.002286949 32.0 (m) DEBRIS
IRIDIUM 33 DEB LEO 2024-07-27 13:11:22 0.0001940643 165.0 (m) DEBRIS

Associated space launch

Experimental communications satellites for the US military

MACSAT 2 (M 2) was lifted into orbit during the mission ‘Scout G-1 | MACSAT 1 & 2’, on board a Scout G-1 space rocket.

The launch took place on May 9, 1990, 5:50 p.m. from Space Launch Complex 5.

For more information about the launch, click the button.

Launch to space Scout G-1 | MACSAT 1 & 2
Scout G-1 | MACSAT 1 & 2

Agency: N/A

Status: Launch Successful

Launch date: May 9, 1990, 5:50 p.m. UTC

Rocket: Scout G-1

Launch pad: Space Launch Complex 5

Location: Vandenberg SFB, CA, USA

...

Latest news about this satellite

There are no fresh news available about this satellite. Check back as we update our databases every day.


Newsletter sign-up

Weekly statistics, charts and insights to help you stay on top of the space industry.